Find Starlink 5187

NORAD ID: 54065 Int'l Des: 2022-136 Owner: SPXS Country: US Constellation: starlink operational
LEOCIRCULAR

实时位置

正在加载3D地球...

关于 Starlink 5187

正在加载描述...

即将过境

Passes for default location (London). Set your location on the main map for personalized predictions.

高度历史

Loading altitude history...

两行轨道根数

1 54065U 22136Q 26125.04404213 .00001955 00000-0 14090-3 0 9995
2 54065 53.2167 90.9879 0000873 76.9092 283.1998 15.08841094195352
Epoch: May 5, 2026 • Age: 9 hours

当前状态

高度 558.8 km
速度 7.58 km/s
星下点 -53.22°S, 11.32°W
发射日期 Oct 20, 2022
运行时间 3.5 years
类型 internet

技术详情

分类 Payload
质量 305.00 kg
干质量 290.00 kg
总质量 305.00 kg
长度 0.20 m
直径 2.80 m
跨度 9.00 m
形状 Box + pan
制造商 SPXS
平台类型 Starlink
阶段状态 In Orbit
所有者/国家 SPXS/US

Most Searched